Location: Asheville, NC
(35.6000°N, 82.5500°W)
Time: 14:58:31
(UTC-05:00)

Vanguard 3 - Pass Details

Date: 11 December 2017
Orbit: 508 x 3264 km, 33.4° (Epoch: 18 January)

Event Time Altitude Azimuth Distance (km) Brightness Sun altitude
Rises 18:25:38 0° 271° (W) 2,908 11.5 -13.5°
Reaches altitude 10° 18:27:48 10° 260° (W) 2,181 10.8 -14.0°
Maximum altitude 18:32:12 31° 197° (SSW) 1,572 9.0 -14.8°
Drops below altitude 10° 18:39:00 10° 139° (SE) 3,416 10.1 -16.1°
Sets 18:43:17 0° 131° (SE) 4,899 10.8 -17.0°
